Theta_e
295 302 302 299 297 297 301 302 301 298 294 295 299 298 299 297 296 297 296 294 294 293 291 290 290 289 289 289 289 289 289 289 289 289 289 289 290 289 289 289 289 289 289 289
298 297 292 292 294 296 298 299 300 296 294 294 297 297 298 297 296 297 297 295 294 293 291 290 290 289 289 289 289 289 289 289 289 289 289 289 289 289 289 289 288 288 288 288
298 292 290 293 294 296 295 298 296 297 295 294 295 300 298 296 296 296 296 296 294 294 291 291 290 290 289 289 289 289 289 289 290 290 289 289 289 289 288 288 288 288 288 288
292 290 292 293 293 294 296 292 293 294 296 299 295 300 301 297 296 295 295 295 295 293 292 291 290 289 289 289 288 289 289 289 289 289 289 289 289 288 288 288 288 287 287 287
292 291 292 293 292 292 294 292 293 294 295 295 295 297 303 295 299 299 296 295 295 294 293 292 291 290 290 289 289 288 289 289 289 289 289 289 288 288 287 287 287 287 287 287
290 287 290 291 289 290 292 294 294 294 295 300 294 296 302 301 301 298 295 295 295 294 293 292 292 290 289 289 288 288 289 289 289 289 289 289 288 288 287 287 287 287 286 286
291 289 288 289 292 292 293 296 301 302 303 303 293 294 301 301 299 296 296 295 294 293 293 292 291 291 289 289 289 288 288 289 289 289 289 289 288 288 288 287 287 286 286 286
298 297 289 288 291 294 293 295 302 301 300 299 292 298 303 297 294 293 293 292 293 293 292 292 293 292 290 290 289 289 289 289 289 289 288 288 288 288 288 287 287 287 286 286
296 293 288 288 288 289 293 296 292 296 288 296 299 300 301 296 297 295 293 292 292 292 292 292 293 292 291 290 290 289 289 289 289 289 288 288 288 288 288 287 287 287 286 286
293 295 288 288 287 288 291 291 296 295 299 300 298 297 300 300 298 297 296 294 293 292 291 292 293 293 291 290 290 289 289 289 289 289 288 288 288 287 287 287 287 287 286 286
291 296 289 288 289 292 290 292 291 293 295 300 298 301 301 297 297 297 295 294 293 293 293 293 293 293 292 290 290 290 289 289 289 289 288 288 287 287 287 287 287 286 286 286
290 296 294 292 286 286 288 292 294 298 296 292 294 298 296 296 294 294 293 294 294 294 293 292 293 293 293 291 290 290 289 289 289 288 288 287 287 287 287 287 287 286 286 286
291 294 297 294 290 286 288 288 290 289 291 294 298 299 292 292 293 293 292 292 293 294 294 293 292 293 293 291 290 290 290 290 289 288 288 287 287 286 286 286 286 286 286 285
289 289 297 302 298 292 289 287 289 292 295 295 294 297 297 296 296 295 292 291 292 292 293 293 292 292 292 290 290 290 290 290 289 289 288 287 287 286 286 286 286 286 285 285
289 292 283 287 287 286 289 287 287 289 294 296 297 296 297 297 294 292 291 290 291 291 292 292 292 291 292 291 290 290 290 290 289 289 288 287 286 286 286 286 286 285 285 285
281 290 281 287 285 286 287 286 287 289 291 291 292 293 294 294 292 291 291 291 291 291 291 292 292 292 292 291 290 291 291 290 289 288 288 287 286 286 286 286 285 285 285 284
286 284 288 294 285 287 291 286 287 288 289 292 292 294 294 292 290 290 290 290 289 290 290 290 292 291 291 290 290 290 289 289 288 288 287 286 286 286 286 285 285 285 284 284
282 285 285 293 285 294 294 286 287 290 291 288 291 291 290 289 289 289 289 289 290 289 290 290 291 291 290 290 289 289 288 288 288 287 286 286 286 285 285 286 286 285 284 284
282 286 286 292 293 293 293 286 287 288 295 290 289 290 290 287 287 289 288 290 290 289 289 289 289 289 289 288 288 287 287 287 286 286 286 285 285 285 285 286 286 285 284 284
282 282 290 283 292 294 292 286 283 285 293 287 288 289 288 287 293 292 288 289 289 289 289 288 288 288 287 287 287 287 286 286 286 286 285 285 286 286 286 286 285 285 284 283
285 285 288 288 291 291 289 284 284 293 294 285 286 287 286 290 289 287 286 287 287 288 287 287 286 286 286 286 286 286 286 286 286 285 285 286 286 286 285 285 285 284 283 283
287 287 286 285 287 290 284 283 289 290 285 286 285 285 285 285 286 286 286 286 286 286 286 285 285 285 285 285 285 285 285 285 285 285 285 286 285 285 285 285 284 283 282 282
289 290 289 289 290 286 284 286 285 286 286 285 285 284 285 285 285 284 284 284 284 284 284 283 283 283 283 283 283 283 283 283 283 283 284 284 284 284 284 283 283 282 281 281
283 282 288 287 289 286 285 284 285 284 284 284 283 283 283 283 282 282 281 282 281 281 281 282 282 281 282 281 281 281 281 281 281 282 282 282 281 281 280 280 280 280 280 280
285 284 286 286 285 284 284 284 283 282 282 281 281 281 281 279 279 279 279 279 279 279 279 279 279 279 279 279 279 279 280 280 280 279 278 278 277 277 278 278 279 279 279 279
283 286 288 290 287 287 280 280 279 279 279 279 278 278 278 277 277 277 276 276 276 276 277 277 277 277 277 277 277 276 276 275 275 275 275 275 275 275 276 276 277 277 278 278
Wind_Speed
5 2 2 4 4 3 5 2 2 1 2 4 7 14 15 14 20 22 23 22 22 20 17 18 16 15 13 11 9 8 7 6 6 6 7 8 9 11 11 12 12 13 14 15
2 4 2 2 2 2 1 1 4 1 0 3 8 17 19 20 28 30 28 28 26 21 19 22 20 18 15 13 11 10 8 7 6 6 6 8 9 10 11 11 12 13 15 16
3 5 2 2 3 3 2 3 2 4 4 2 10 10 5 5 23 21 31 29 27 27 24 25 24 21 18 15 13 11 9 8 7 6 7 8 9 10 11 11 12 14 15 16
6 1 2 4 3 1 3 1 1 2 4 4 4 8 8 3 10 19 23 29 29 28 25 24 26 24 21 17 15 13 11 9 7 6 6 7 7 8 9 11 12 13 14 15
3 3 3 2 3 3 4 3 3 1 1 4 1 5 2 2 9 10 18 27 30 30 29 28 28 25 22 20 17 15 12 10 8 5 5 5 7 8 10 11 11 12 13 14
4 2 4 3 4 2 8 3 2 2 0 3 1 3 5 3 3 2 3 13 25 30 29 29 28 27 24 22 20 18 15 12 9 6 4 4 5 7 8 9 10 11 13 14
2 3 2 1 5 2 2 3 1 2 2 3 0 4 11 11 10 8 11 8 15 26 29 29 28 30 28 26 23 20 17 14 11 8 4 2 4 7 8 8 9 10 12 13
5 3 2 2 3 1 3 2 2 4 3 3 2 7 4 2 6 9 7 7 8 20 27 30 33 31 30 27 24 21 19 16 13 10 6 2 3 6 8 9 10 10 11 13
4 3 1 2 2 2 4 3 2 5 2 2 4 6 10 8 5 10 7 6 5 12 24 28 33 33 30 27 25 21 19 17 15 11 7 3 2 6 9 10 11 11 12 13
5 4 1 1 2 5 1 5 2 0 3 5 5 6 8 6 5 9 10 7 5 7 18 27 33 34 30 26 23 22 20 18 16 14 10 6 4 6 9 11 12 13 13 13
3 2 3 2 7 7 4 4 1 2 2 3 4 4 4 5 3 4 8 7 4 7 13 28 34 35 31 27 25 23 21 20 18 16 13 10 7 7 9 12 14 14 14 14
4 2 3 2 3 4 2 4 8 4 5 2 3 9 4 6 7 5 5 9 7 7 10 19 33 35 34 30 27 25 21 19 16 16 17 14 11 10 10 12 15 16 15 15
7 3 2 2 3 1 6 5 4 3 1 6 4 6 1 4 8 3 5 9 10 12 11 14 29 38 36 33 27 24 21 18 17 18 18 17 15 13 12 14 17 17 16 16
4 1 4 4 3 5 5 6 11 5 4 5 11 21 10 11 11 9 5 12 20 17 14 14 24 38 38 34 28 24 22 21 20 19 19 19 18 15 14 17 18 17 16 17
2 5 2 4 3 3 3 5 13 13 14 11 19 20 11 7 4 9 21 17 16 16 16 15 19 33 38 34 30 25 24 24 21 20 20 20 19 17 17 18 19 17 18 18
0 3 4 4 3 8 5 9 12 18 13 20 21 25 18 24 18 13 13 15 15 15 14 13 16 27 33 31 27 23 22 21 21 19 18 19 19 18 19 19 18 19 20 20
6 6 3 3 3 4 8 12 20 10 9 13 14 20 12 3 5 12 15 13 16 15 13 12 14 22 25 24 22 20 18 18 17 16 17 17 18 19 18 18 19 21 23 24
6 5 1 1 2 7 2 3 6 17 11 18 12 14 3 5 15 15 9 13 14 12 11 9 9 15 18 18 18 17 16 15 14 15 14 15 18 18 18 19 21 22 25 27
1 4 3 3 5 8 5 6 7 8 7 15 19 18 11 8 5 3 14 11 5 4 6 6 9 10 13 15 15 14 13 13 13 14 15 17 18 20 22 24 25 26 28 28
3 3 2 4 5 7 0 2 5 4 7 4 10 6 6 5 2 2 12 7 1 1 2 6 13 15 16 16 15 14 15 15 15 16 17 18 20 23 25 27 29 29 30 30
4 3 10 7 7 8 4 8 8 5 2 5 6 4 7 2 2 5 8 3 4 5 6 9 13 15 14 13 13 14 15 16 17 19 20 21 23 26 28 29 29 29 29 28
10 10 5 4 5 10 12 8 6 2 6 8 7 6 3 3 5 4 3 3 4 6 6 9 10 11 11 11 13 15 17 19 21 23 24 26 28 29 31 32 32 30 30 29
5 6 7 10 7 1 21 2 8 7 7 5 2 5 7 6 6 4 5 5 5 5 6 6 8 10 12 14 15 18 20 23 24 25 27 29 30 31 32 32 32 30 29 30
4 6 3 3 5 11 11 13 9 6 5 6 7 8 7 6 6 5 5 7 7 8 8 9 10 12 14 16 18 21 22 24 25 26 27 28 29 29 29 28 28 26 26 27
3 13 6 5 4 3 6 14 15 12 8 7 6 6 4 3 3 4 5 7 8 10 11 12 14 15 16 17 19 22 23 25 26 26 26 26 26 25 25 24 24 24 24 24
9 6 6 6 6 4 4 11 10 9 7 6 5 4 4 4 4 4 6 8 10 12 13 14 16 18 19 20 20 22 22 22 23 23 23 23 24 24 25 26 26 24 25 26
Wind_Direction
26 129 99 52 35 72 107 138 253 190 40 291 262 271 266 226 221 226 222 217 216 215 206 202 197 189 182 173 163 150 134 121 103 91 78 68 60 56 50 47 41 36 33 30
118 78 56 50 50 76 110 228 254 193 15 268 296 280 269 231 229 225 222 220 216 211 206 206 202 196 190 184 177 166 154 139 123 109 89 69 57 50 45 42 37 33 29 25
101 118 186 156 117 135 36 290 287 305 314 230 300 268 258 235 236 234 230 228 220 211 206 207 205 201 196 191 185 177 168 155 139 115 84 65 52 45 42 38 33 30 26 23
74 146 157 133 113 206 172 70 350 318 297 307 343 297 281 243 246 230 235 224 219 211 209 208 206 203 200 196 192 187 180 170 151 121 92 74 62 51 44 38 33 29 25 23
118 129 141 121 59 335 95 139 120 117 273 306 128 266 257 253 277 257 235 227 220 212 207 206 209 207 202 201 198 195 190 182 168 143 109 71 51 42 37 34 29 24 22 19
83 44 22 75 75 54 137 123 105 102 312 248 46 276 294 224 230 298 331 236 223 212 206 208 210 208 205 205 203 202 198 192 184 168 137 83 48 35 31 25 20 16 13 11
113 58 77 59 109 111 206 190 254 252 210 277 69 247 268 276 293 293 299 284 229 214 205 203 203 206 206 208 207 205 202 199 195 187 173 115 45 29 20 12 8 7 4 3
179 188 150 18 3 277 167 258 211 243 255 327 127 245 256 66 325 300 291 285 245 213 207 204 207 209 210 209 209 207 206 204 202 198 194 182 25 13 5 359 354 351 351 352
143 121 58 72 112 321 151 224 20 106 88 270 245 265 272 99 43 18 337 285 266 218 210 206 208 210 212 210 210 209 207 208 207 207 211 226 320 348 349 344 337 334 334 337
166 114 2 84 134 68 255 137 137 246 219 241 239 272 255 336 12 0 9 335 285 241 212 209 210 211 212 211 211 209 210 212 212 216 222 237 275 317 331 333 325 318 317 321
135 266 124 153 213 180 156 189 127 324 256 250 284 252 187 224 275 328 345 334 314 264 234 214 211 212 211 209 209 209 211 214 217 222 231 244 264 292 313 322 319 309 303 306
167 105 173 150 72 353 320 207 190 220 199 253 340 270 176 249 270 257 325 355 344 307 262 230 215 212 211 208 209 210 211 217 222 228 235 245 258 275 298 312 315 305 295 294
182 189 156 182 120 30 248 205 178 98 39 201 235 251 165 261 254 238 310 320 354 334 300 246 219 213 212 210 211 213 216 224 227 231 235 241 252 268 290 305 313 305 294 290
139 134 238 230 115 116 194 199 201 187 189 219 230 272 232 260 270 298 324 330 320 309 291 261 225 213 211 212 214 219 223 228 232 234 237 241 249 265 286 300 308 302 294 292
179 200 216 283 221 193 196 172 190 205 213 213 263 248 262 269 309 309 305 308 309 300 290 270 233 214 209 212 217 224 230 234 236 239 237 242 250 267 286 296 301 297 293 294
315 189 138 275 232 229 246 218 211 221 234 249 260 276 274 280 278 284 303 304 300 301 287 275 241 214 211 215 220 231 234 235 235 231 240 244 254 272 285 294 294 292 292 293
169 149 149 250 337 288 265 208 202 201 209 221 232 244 290 278 294 302 303 296 293 299 304 284 250 223 219 223 228 234 230 222 227 237 244 249 261 271 281 288 294 295 292 287
148 131 140 264 263 249 347 131 194 213 237 215 256 256 273 276 298 303 327 305 297 300 306 280 247 223 219 218 219 219 218 223 235 244 248 253 260 270 280 288 294 296 292 285
268 141 140 207 215 307 238 198 180 180 261 213 225 255 268 277 295 172 1 351 340 311 311 237 201 210 209 206 203 206 217 228 233 238 246 254 267 277 283 286 290 291 289 285
89 49 219 150 225 236 88 162 165 162 267 172 195 232 202 180 217 69 352 1 121 225 209 191 209 201 196 195 204 217 227 235 242 250 257 267 277 284 286 288 288 288 287 284
162 188 216 206 242 281 226 148 151 180 270 136 146 149 158 157 21 317 344 1 175 171 174 183 190 194 196 205 217 229 240 249 257 265 273 280 283 286 289 292 293 290 285 279
170 165 180 167 214 267 154 121 201 90 105 121 115 109 97 345 341 326 247 229 194 200 190 189 198 210 219 231 241 250 257 264 269 274 278 280 284 287 291 293 295 292 286 279
208 197 181 197 206 71 183 78 171 151 154 158 192 277 301 302 289 271 232 217 217 210 207 217 234 246 255 264 270 273 276 278 279 281 282 284 286 289 291 292 292 289 284 277
226 179 210 174 194 224 204 201 197 209 215 245 268 285 292 261 250 245 239 241 252 261 266 270 275 279 281 283 286 286 286 287 288 289 291 293 295 295 294 292 290 287 284 280
132 152 176 259 263 135 208 211 227 239 240 242 243 248 245 228 237 255 266 274 278 284 287 289 290 290 291 291 292 292 292 295 296 297 300 300 300 301 300 298 297 293 288 283
189 171 187 243 198 197 149 193 205 207 210 210 222 239 244 263 276 285 288 291 295 298 300 302 303 302 302 303 302 300 300 300 301 301 303 304 304 304 305 304 302 298 293 289